[Iaude] MPEC G200: 2024 GP5 [a=1.51,e=0.39,i=32.6,H=24.8]
    mpec at cfa.harvard.edu 
    mpec at cfa.harvard.edu
       
    Sun Apr 14 09:58:02 EDT 2024
    
    
  
M.P.E.C. 2024-G200                               Issued 2024 April 14, 13:56 UT
     The Minor Planet Electronic Circulars contain information on unusual
         minor planets, routine data on comets and natural satellites,
         and occasional editorial announcements.  They are published
    on behalf of Division F of the International Astronomical Union by the
          Minor Planet Center, Smithsonian Astrophysical Observatory,
                          Cambridge, MA 02138, U.S.A.
			  
             Prepared using the Tamkin Foundation Computer Network
                              MPC at CFA.HARVARD.EDU
            URL https://www.minorplanetcenter.net/    ISSN 1523-6714
                                    2024 GP5                                    
Observations:
     K24G05P 1C2024 04 11.28502 11 21 16.43 +29 09 26.1          19.4 GVEG200703
     K24G05P 1C2024 04 11.28953 11 21 12.12 +29 05 33.6          19.2 GVEG200703
     K24G05P*KC2024 04 13.74645 10 54 01.52 -01 50 52.0          19.2 GXEG200L51
     K24G05P KC2024 04 13.74767 10 54 00.94 -01 51 37.2          19.7 GXEG200L51
     K24G05P KC2024 04 13.74890 10 54 00.26 -01 52 22.1          19.6 GXEG200L51
     K24G05P KC2024 04 13.78730 10 53 40.12 -02 15 11.5          19.5 GXEG200L51
     K24G05P KC2024 04 13.78923 10 53 39.13 -02 16 19.8          19.3 GXEG200L51
     K24G05P KC2024 04 13.79115 10 53 38.15 -02 17 28.0          19.8 GXEG200L51
     K24G05P KC2024 04 13.82794 10 53 22.20 -02 39 07.4          19.8 GXEG200K83
     K24G05P KB2024 04 13.83993 10 53 15.55 -02 46 13.7                ZEG200106
     K24G05P KB2024 04 13.84345 10 53 13.72 -02 48 16.6                ZEG200106
     K24G05P KB2024 04 13.84684 10 53 11.89 -02 50 13.9                ZEG200106
     K24G05P KC2024 04 13.84697 10 53 12.34 -02 50 15.0          19.9 GXEG200K83
     K24G05P KB2024 04 13.85009 10 53 10.43 -02 52 08.5                ZEG200106
     K24G05P KB2024 04 13.85322310 53 09.42 -02 53 58.2                VEG200204
     K24G05P KC2024 04 13.86246 10 53 04.35 -02 59 17.8                VEG200104
     K24G05P KB2024 04 13.86717310 53 02.24 -03 02 05.7          19.6 GVEG200204
     K24G05P KC2024 04 13.86800 10 53 01.54 -03 02 30.6          19.4 GVEG200104
     K24G05P hC2024 04 13.87354210 52 58.30 -03 05 45.0          20.0 GVEG200L01
     K24G05P hC2024 04 13.90531510 52 42.19 -03 24 06.5          19.7 GVEG200L01
     K24G05P hC2024 04 13.90781510 52 40.94 -03 25 33.8          20.0 GVEG200L01
     K24G05P hC2024 04 13.91402110 52 37.75 -03 29 08.4          19.8 GVEG200L01
     K24G05P KB2024 04 13.97614710 52 14.707-04 01 49.40               ZEG200Y05
     K24G05P KB2024 04 13.98362210 52 10.846-04 06 03.92               ZEG200Y05
     K24G05P KC2024 04 14.09799010 51 19.93 -05 12 17.2          20.2 GVEG200H21
     K24G05P KC2024 04 14.09991910 51 18.99 -05 13 20.8          20.1 GVEG200H21
     K24G05P KC2024 04 14.10281210 51 17.58 -05 14 56.0          20.2 GVEG200H21
     K24G05P KC2024 04 14.10474010 51 16.63 -05 15 59.2          20.1 GVEG200H21
     K24G05P mC2024 04 14.13896510 51 03.294-05 34 25.79         20.24GVEG200I52
     K24G05P mC2024 04 14.13921610 51 03.186-05 34 33.35         20.50GVEG200I52
     K24G05P mC2024 04 14.13946710 51 03.107-05 34 42.20         20.78GVEG200I52
     K24G05P mC2024 04 14.13971710 51 02.999-05 34 50.38         19.71GVEG200I52
Observer details:
104 San Marcello Pistoiese.  Observers P. Bacci, M. Maestripieri.  Measurer P.
    Bacci.  0.60-m f/4 reflector + CCD.
106 Crni Vrh.  Observer H. Mikuz.  0.60-m f/3.3 reflector + CMO.
204 Schiaparelli Observatory.  Observer L. Buzzi.  0.84-m f/3.5 reflector +
    CMO.
703 Catalina Sky Survey.  Observer J. K. Hogan.  Measurers B. Gray, D. Rankin,
    F. C. Shelly.  0.68-m Schmidt + 10K CCD.
H21 Astronomical Research Observatory, Westfield.  Observer R. Holmes.
    Measurers T. Linder, R. Holmes, L. Horn.  0.76-m f/3.0 astrograph + CCD.
I52 Steward Observatory, Mt. Lemmon Station.  Observer D. Rankin.  Measurers
    T. Beuden, V. F. Carvajal, D. Fay, J. B. Fazekas, D. C. Fuls, A. R. Gibbs,
    A. D. Grauer, H. Groeller, J. K. Hogan, R. A. Kowalski, S. M. Larson, G.
    J. Leonard, D. Rankin, R. L. Seaman, F. C. Shelly, K. W. Wierzchos.  1.0-m
    prime focus + CCD.
K83 Beppe Forti Astronomical Observatory, Montelupo.  Observers M. Tombelli,
    L. Grazzini, F. Cheli, M. Iozzi, A. Squilloni.  Measurers M. Tombelli, F.
    Bernardi, F. Cheli, M. Iozzi, A. Squilloni, L. Grazzini.  0.40-m f/8
    Ritchey-Chretien + CCD.
L01 Visnjan Observatory, Tican.  Observer K. Korlevic.  1.0-m f/2.9 reflector
    + CCD.
L51 MARGO, Nauchnyi.  Observer G. Borisov.  0.50-m f/1.9 reflector + CCD.
Y05 SONEAR Wykrota-CEAMIG, Serra da Piedade.  Observers C. Jacques, A.
    Caetano, E. Pimentel.  Measurer C. Jacques.  0.45-m f/2.9 reflector + CMO.
Orbital elements:
2024 GP5                                                 Earth MOID = 0.0353 AU
Epoch 2024 Mar. 31.0 TT = JDT 2460400.5                 MPC                     
M  16.91412              (2000.0)            P               Q                  
n   0.53005018     Peri.  125.59163     -0.79268858     -0.57672239             
a   1.5121379      Node    21.51361     +0.21466123     -0.56739152             
e   0.3926522      Incl.   32.59932     +0.57058335     -0.58775688             
P   1.86           H   24.86          G   0.15           U   8                  
Residuals in seconds of arc
240411 703  0.2+  0.0     240413 106  1.4-  1.0+    240413 Y05  1.2+  0.8-
240411 703 (2.6+  0.6+)   240413 K83  0.0   0.2+    240413 Y05  0.9+  1.5-
240413 L51  0.3-  0.5+    240413 106  1.8+  0.2+    240414 H21  0.1+  0.0
240413 L51  0.6+  0.9-    240413 204  0.2+  0.0     240414 H21  0.1+  0.0
240413 L51  0.1+  1.7-    240413 104  0.8-  0.3-    240414 H21  0.2+  0.1+
240413 L51  0.5-  0.1+    240413 204  0.3-  0.3-    240414 H21  0.1+  0.3+
240413 L51  0.3-  0.4+    240413 104  0.2-  0.2+    240414 I52  1.0-  0.4-
240413 L51  0.1+  0.4+    240413 L01  0.5-  1.1+    240414 I52  0.8-  0.2+
240413 K83  0.4+  0.5-    240413 L01  0.0   1.0+    240414 I52  0.1-  0.5-
240413 106  0.2+  1.1-    240413 L01  0.2+  0.0     240414 I52  0.1+  0.5-
240413 106  0.1-  0.5-    240413 L01  0.8-  0.7-
Ephemeris:
2024 GP5                 a,e,i = 1.51, 0.39, 33                  q = 0.9184
Date    TT    R. A. (2000) Decl.     Delta      r    Elong.  Phase     V
2024 03 15    21 21 56.4 +62 53 41   0.2996  0.9355    70.0    92.5    25.4
...
2024 03 30    20 18 57.4 +71 45 27   0.1434  0.9802    78.5    93.2    23.9
...
2024 04 07    13 54 59.0 +73 44 56   0.06451 1.0132    99.0    77.3    21.6
...
2024 04 13    11 00 30.2 +06 18 02   0.04904 1.0411   140.6    37.6    19.9
2024 04 14    10 52 02.0 -04 15 32   0.05492 1.0460   140.6    37.5    20.2
2024 04 15    10 45 20.1 -12 32 49   0.06235 1.0509   138.7    39.0    20.5
...
2024 04 21    10 24 25.6 -35 37 07   0.1208  1.0817   126.9    48.0    22.2
...
2024 04 29    10 17 05.2 -44 23 20   0.2085  1.1254   119.8    50.9    23.6
...
2024 05 14    10 24 00.5 -49 22 01   0.3765  1.2121   113.7    49.8    25.0
A. U. Tomatic                (C) Copyright 2024 MPC           M.P.E.C. 2024-G200
    
    
More information about the Iaude
mailing list